This is the latest recevied weather packets stored in our database for station/object WX1NWA. If no packets are shown the sender has not sent any weather packets the latest 10 day(s).
| Time | Temp. | Humidity | Pressure | Rain* | Wind** | Luminosity | Snow |
|---|---|---|---|---|---|---|---|
| 1777291338 | 20° C | 97% | 1009.6 hPa | 0 mm | - | 14 W/m² | - |
| 1777291035 | 20° C | 97% | 1009.3 hPa | 0 mm | - | 19 W/m² | - |
| 1777290731 | 20° C | 97% | 1009.6 hPa | 0 mm | - | 6 W/m² | - |
| 1777290428 | 20° C | 97% | 1009.8 hPa | 0 mm | - | 7 W/m² | - |
| 1777290122 | 20° C | 97% | 1009.7 hPa | 0 mm | - | 4 W/m² | - |
| 1777289821 | 20° C | 97% | 1009.5 hPa | 0 mm | - | 4 W/m² | - |
| 1777289516 | 20° C | 96% | 1009.3 hPa | 0 mm | - | 2 W/m² | - |
| 1777289212 | 20° C | 96% | 1009.5 hPa | 0 mm | - | 0 W/m² | - |
| 1777288909 | 20° C | 96% | 1009.6 hPa | 0 mm | - | 0 W/m² | - |
| 1777288606 | 20° C | 96% | 1009.7 hPa | 0 mm | - | 0 W/m² | - |
| 1777288302 | 20° C | 97% | 1009.5 hPa | 0 mm | - | 0 W/m² | - |
| 1777287999 | 20° C | 97% | 1009.3 hPa | 0 mm | - | 0 W/m² | - |
| 1777287696 | 20° C | 97% | 1009.7 hPa | 0 mm | - | 0 W/m² | - |
| 1777287391 | 20° C | 97% | 1009.5 hPa | 0 mm | - | 0 W/m² | - |
| 1777287087 | 20° C | 99% | 1009.2 hPa | 0 mm | - | 0 W/m² | - |
| 1777286785 | 20° C | 99% | 1009.2 hPa | 0 mm | - | 0 W/m² | - |
| 1777286483 | 20° C | 99% | 1009.6 hPa | 0 mm | - | 0 W/m² | - |
| 1777286180 | 20.56° C | 98% | 1009.8 hPa | 0 mm | - | 0 W/m² | - |
| 1777285878 | 20.56° C | 99% | 1009.8 hPa | 0 mm | - | 0 W/m² | - |
| 1777285574 | 20° C | 99% | 1009.5 hPa | 0 mm | - | 0 W/m² | - |
| 1777285272 | 20° C | 99% | 1009.2 hPa | 0 mm | - | 0 W/m² | - |
| 1777284969 | 20° C | 99% | 1009.7 hPa | 0 mm | - | 0 W/m² | - |
| 1777284665 | 20.56° C | 99% | 1009.7 hPa | 0 mm | - | 0 W/m² | - |
| 1777284362 | 20.56° C | 99% | 1009.6 hPa | 0 mm | - | 0 W/m² | - |
| 1777284059 | 20.56° C | 99% | 1009.5 hPa | 0 mm | - | 0 W/m² | - |
* Rain latest hour (hover to see other rain measurements)
** Current wind speed in m/s (hover to see current wind gust speed)